| time (UTC) | temp C | wind direction | speed KPH | gust KPH | rain 1hr cm | rain 24hr cm | rain mn cm | humidity % | barometer mb |
| 20260504050451 | 2 | 263 | 0.0 | 0.0 | 0.00 | 0.00 | 0.00 | 90 | 1017.6 |
| 20260504045948 | 2 | 262 | 0.0 | 0.0 | 0.00 | 0.00 | 0.00 | 91 | 1017.5 |
| 20260504045443 | 2 | 257 | 0.0 | 0.0 | 0.00 | 0.00 | 0.00 | 90 | 1017.7 |
| 20260504044939 | 2 | 264 | 0.0 | 0.0 | 0.00 | 0.00 | 0.00 | 90 | 1017.4 |
| 20260504044437 | 2 | 259 | 0.0 | 0.0 | 0.00 | 0.00 | 0.00 | 90 | 1017.6 |
| 20260504043934 | 2 | 259 | 0.0 | 0.0 | 0.00 | 0.00 | 0.00 | 90 | 1017.6 |
| 20260504043431 | 2 | 259 | 0.0 | 0.0 | 0.00 | 0.00 | 0.00 | 89 | 1017.6 |
| 20260504042929 | 2 | 261 | 0.0 | 0.0 | 0.00 | 0.00 | 0.00 | 89 | 1017.5 |
| 20260504042425 | 2 | 249 | 0.0 | 0.0 | 0.00 | 0.00 | 0.00 | 89 | 1017.6 |
| 20260504041921 | 2 | 261 | 0.0 | 0.0 | 0.00 | 0.00 | 0.00 | 89 | 1017.5 |
| 20260504041418 | 2 | 243 | 0.0 | 0.0 | 0.00 | 0.00 | 0.00 | 89 | 1017.6 |
| 20260504040914 | 2 | 250 | 0.0 | 0.0 | 0.00 | 0.00 | 0.00 | 88 | 1017.4 |
| 20260504040412 | 2 | 250 | 0.0 | 0.0 | 0.00 | 0.00 | 0.00 | 88 | 1017.6 |
| 20260504035907 | 3 | 250 | 0.0 | 0.0 | 0.00 | 0.00 | 0.00 | 87 | 1017.7 |
| 20260504035405 | 3 | 275 | 0.0 | 0.0 | 0.00 | 0.00 | 0.00 | 87 | 1017.7 |
| 20260504034901 | 3 | 264 | 0.0 | 0.0 | 0.00 | 0.00 | 0.00 | 87 | 1017.5 |
| 20260504034359 | 3 | 263 | 0.0 | 0.0 | 0.00 | 0.00 | 0.00 | 86 | 1017.4 |
| 20260504033856 | 3 | 263 | 0.0 | 0.0 | 0.00 | 0.00 | 0.00 | 86 | 1017.5 |
| 20260504033354 | 3 | 268 | 0.0 | 0.0 | 0.00 | 0.00 | 0.00 | 85 | 1017.4 |
| 20260504032850 | 3 | 268 | 0.0 | 0.0 | 0.00 | 0.00 | 0.00 | 85 | 1017.3 |
| 20260504032347 | 3 | 268 | 0.0 | 0.0 | 0.00 | 0.00 | 0.00 | 84 | 1017.2 |
| 20260504031844 | 3 | 268 | 0.0 | 0.0 | 0.00 | 0.00 | 0.00 | 84 | 1017.3 |
| 20260504031341 | 4 | 268 | 0.0 | 0.0 | 0.00 | 0.00 | 0.00 | 83 | 1017.3 |
| 20260504030837 | 4 | 268 | 0.0 | 0.0 | 0.00 | 0.00 | 0.00 | 82 | 1017.3 |
| 20260504030335 | 4 | 265 | 0.0 | 0.0 | 0.00 | 0.00 | 0.00 | 82 | 1017.3 |
| 20260504025831 | 4 | 241 | 0.0 | 0.0 | 0.00 | 0.00 | 0.00 | 81 | 1017.4 |
| 20260504025328 | 4 | 241 | 0.0 | 0.0 | 0.00 | 0.00 | 0.00 | 81 | 1017.3 |
| 20260504024825 | 5 | 253 | 0.0 | 0.0 | 0.00 | 0.00 | 0.00 | 80 | 1017.3 |
| 20260504024321 | 5 | 265 | 0.0 | 0.0 | 0.00 | 0.00 | 0.00 | 80 | 1017.1 |
| 20260504023818 | 5 | 265 | 0.0 | 0.0 | 0.00 | 0.00 | 0.00 | 79 | 1017.1 |
| 20260504023315 | 5 | 246 | 0.0 | 0.0 | 0.00 | 0.00 | 0.00 | 78 | 1017.1 |
| 20260504022810 | 5 | 246 | 0.0 | 0.0 | 0.00 | 0.00 | 0.00 | 77 | 1017.0 |
| 20260504022307 | 5 | 248 | 0.0 | 0.0 | 0.00 | 0.00 | 0.00 | 77 | 1017.0 |
| 20260504021803 | 5 | 248 | 0.0 | 0.0 | 0.00 | 0.00 | 0.00 | 77 | 1017.0 |
| 20260504021302 | 5 | 298 | 0.0 | 0.0 | 0.00 | 0.00 | 0.00 | 78 | 1016.9 |
| 20260504020758 | 5 | 274 | 0.0 | 0.0 | 0.00 | 0.00 | 0.00 | 77 | 1016.8 |
| 20260504020255 | 5 | 256 | 0.0 | 0.0 | 0.00 | 0.00 | 0.00 | 76 | 1017.1 |
| 20260504015750 | 5 | 256 | 0.0 | 0.0 | 0.00 | 0.00 | 0.00 | 76 | 1016.9 |
| 20260504015247 | 6 | 266 | 0.0 | 0.0 | 0.00 | 0.00 | 0.00 | 75 | 1016.8 |
| 20260504014743 | 6 | 266 | 0.0 | 0.0 | 0.00 | 0.00 | 0.00 | 73 | 1016.8 |
| 20260504014240 | 6 | 267 | 0.0 | 0.0 | 0.00 | 0.00 | 0.00 | 73 | 1017.0 |
| 20260504013738 | 6 | 267 | 0.0 | 0.0 | 0.00 | 0.00 | 0.00 | 73 | 1016.9 |
| 20260504013235 | 6 | 267 | 0.0 | 0.0 | 0.00 | 0.00 | 0.00 | 72 | 1016.8 |
| 20260504012731 | 6 | 252 | 0.0 | 0.0 | 0.00 | 0.00 | 0.00 | 71 | 1016.5 |
| 20260504012229 | 7 | 252 | 0.0 | 0.0 | 0.00 | 0.00 | 0.00 | 71 | 1016.6 |
| 20260504011726 | 7 | 256 | 0.0 | 0.0 | 0.00 | 0.00 | 0.00 | 69 | 1016.7 |
| 20260504011223 | 7 | 256 | 0.0 | 0.0 | 0.00 | 0.00 | 0.00 | 68 | 1016.6 |
| 20260504010719 | 7 | 259 | 0.0 | 0.0 | 0.00 | 0.00 | 0.00 | 67 | 1016.4 |
| 20260504010215 | 7 | 259 | 0.0 | 0.0 | 0.00 | 0.00 | 0.00 | 66 | 1016.5 |
| 20260504005711 | 7 | 252 | 0.0 | 0.0 | 0.00 | 0.00 | 0.00 | 66 | 1016.5 |
| 20260504005209 | 8 | 248 | 0.0 | 0.0 | 0.00 | 0.00 | 0.00 | 64 | 1016.5 |
| 20260504004706 | 8 | 248 | 0.0 | 0.0 | 0.00 | 0.00 | 0.00 | 62 | 1016.3 |
| 20260504004203 | 8 | 250 | 0.0 | 0.0 | 0.00 | 0.00 | 0.00 | 62 | 1016.3 |
| 20260504003700 | 9 | 250 | 0.0 | 0.0 | 0.00 | 0.00 | 0.00 | 58 | 1016.5 |
| 20260504003156 | 9 | 239 | 0.0 | 0.0 | 0.00 | 0.00 | 0.00 | 58 | 1016.5 |
| 20260504002653 | 10 | 240 | 0.0 | 0.0 | 0.00 | 0.00 | 0.00 | 59 | 1016.4 |
| 20260504002150 | 10 | 239 | 0.0 | 0.0 | 0.00 | 0.00 | 0.00 | 54 | 1016.3 |
| 20260504001648 | 10 | 237 | 0.0 | 0.0 | 0.00 | 0.00 | 0.00 | 53 | 1016.4 |
| 20260504001144 | 11 | 258 | 0.0 | 0.0 | 0.00 | 0.00 | 0.00 | 49 | 1016.3 |
| 20260504000641 | 12 | 333 | 0.0 | 0.0 | 0.00 | 0.00 | 0.00 | 45 | 1016.3 |
| 20260504000139 | 12 | 269 | 0.0 | 0.0 | 0.00 | 0.00 | 0.00 | 45 | 1016.3 |
| 20260503235637 | 13 | 271 | 0.0 | 0.0 | 0.00 | 0.00 | 0.00 | 39 | 1016.3 |
| 20260503235133 | 13 | 279 | 0.0 | 0.0 | 0.00 | 0.00 | 0.00 | 39 | 1016.3 |
| 20260503234631 | 14 | 294 | 0.0 | 0.0 | 0.00 | 0.00 | 0.00 | 34 | 1016.0 |
| 20260503234129 | 15 | 274 | 0.0 | 0.0 | 0.00 | 0.00 | 0.00 | 33 | 1016.1 |
| 20260503233626 | 15 | 269 | 0.0 | 0.0 | 0.00 | 0.00 | 0.00 | 31 | 1016.1 |
| 20260503233121 | 15 | 286 | 0.0 | 0.0 | 0.00 | 0.00 | 0.00 | 31 | 1016.0 |
| 20260503232619 | 15 | 275 | 0.0 | 1.6 | 0.00 | 0.00 | 0.00 | 31 | 1015.9 |
| 20260503232116 | 15 | 327 | 0.0 | 6.4 | 0.00 | 0.00 | 0.00 | 30 | 1015.9 |
| 20260503231614 | 15 | 268 | 0.0 | 0.0 | 0.00 | 0.00 | 0.00 | 31 | 1016.0 |
| 20260503231110 | 15 | 313 | 1.6 | 4.8 | 0.00 | 0.00 | 0.00 | 30 | 1015.9 |
| 20260503230607 | 16 | 352 | 0.0 | 1.6 | 0.00 | 0.00 | 0.00 | 30 | 1016.0 |
| 20260503230104 | 16 | 271 | 6.4 | 14.5 | 0.00 | 0.00 | 0.00 | 29 | 1015.9 |
| 20260503225601 | 16 | 260 | 1.6 | 3.2 | 0.00 | 0.00 | 0.00 | 31 | 1015.9 |
| 20260503225056 | 16 | 263 | 0.0 | 3.2 | 0.00 | 0.00 | 0.00 | 30 | 1015.8 |
| 20260503224554 | 16 | 321 | 0.0 | 4.8 | 0.00 | 0.00 | 0.00 | 29 | 1015.9 |
| 20260503224052 | 16 | 254 | 0.0 | 9.7 | 0.00 | 0.00 | 0.00 | 31 | 1015.6 |
| 20260503223550 | 16 | 327 | 0.0 | 4.8 | 0.00 | 0.00 | 0.00 | 28 | 1015.8 |
| 20260503223045 | 17 | 265 | 1.6 | 9.7 | 0.00 | 0.00 | 0.00 | 29 | 1015.7 |
| 20260503222543 | 17 | 232 | 1.6 | 4.8 | 0.00 | 0.00 | 0.00 | 27 | 1015.8 |
| 20260503222041 | 17 | 284 | 0.0 | 6.4 | 0.00 | 0.00 | 0.00 | 28 | 1015.7 |
| 20260503221539 | 17 | 254 | 3.2 | 4.8 | 0.00 | 0.00 | 0.00 | 27 | 1015.9 |
| 20260503221036 | 17 | 283 | 1.6 | 4.8 | 0.00 | 0.00 | 0.00 | 27 | 1015.9 |
| 20260503220532 | 17 | 290 | 3.2 | 9.7 | 0.00 | 0.00 | 0.00 | 28 | 1016.0 |
| 20260503220029 | 17 | 208 | 0.0 | 4.8 | 0.00 | 0.00 | 0.00 | 28 | 1016.1 |
| 20260503215527 | 17 | 336 | 0.0 | 6.4 | 0.00 | 0.00 | 0.00 | 28 | 1016.0 |
| 20260503215023 | 17 | 284 | 3.2 | 11.3 | 0.00 | 0.00 | 0.00 | 29 | 1015.9 |
| 20260503214522 | 18 | 267 | 1.6 | 9.7 | 0.00 | 0.00 | 0.00 | 27 | 1015.9 |
| 20260503214018 | 17 | 281 | 1.6 | 9.7 | 0.00 | 0.00 | 0.00 | 28 | 1016.0 |
| 20260503213516 | 18 | 243 | 0.0 | 1.6 | 0.00 | 0.00 | 0.00 | 27 | 1016.0 |
| 20260503213013 | 18 | 1 | 0.0 | 4.8 | 0.00 | 0.00 | 0.00 | 27 | 1015.9 |
| 20260503212511 | 18 | 317 | 0.0 | 0.0 | 0.00 | 0.00 | 0.00 | 28 | 1016.0 |
| 20260503212008 | 17 | 41 | 0.0 | 4.8 | 0.00 | 0.00 | 0.00 | 27 | 1015.8 |
| 20260503211505 | 18 | 285 | 3.2 | 14.5 | 0.00 | 0.00 | 0.00 | 28 | 1016.1 |
| 20260503211000 | 18 | 233 | 8.0 | 9.7 | 0.00 | 0.00 | 0.00 | 27 | 1016.0 |
| 20260503210457 | 18 | 23 | 0.0 | 6.4 | 0.00 | 0.00 | 0.00 | 29 | 1016.0 |
| 20260503205951 | 18 | 222 | 6.4 | 11.3 | 0.00 | 0.00 | 0.00 | 28 | 1016.0 |
| 20260503205448 | 18 | 250 | 6.4 | 11.3 | 0.00 | 0.00 | 0.00 | 27 | 1015.9 |
| 20260503204944 | 18 | 191 | 4.8 | 9.7 | 0.00 | 0.00 | 0.00 | 27 | 1016.0 |
| 20260503204442 | 17 | 354 | 4.8 | 9.7 | 0.00 | 0.00 | 0.00 | 27 | 1016.0 |
| 20260503203938 | 17 | 306 | 3.2 | 14.5 | 0.00 | 0.00 | 0.00 | 27 | 1016.0 |
| 20260503203436 | 18 | 313 | 3.2 | 9.7 | 0.00 | 0.00 | 0.00 | 26 | 1015.8 |
| 20260503202933 | 17 | 53 | 0.0 | 11.3 | 0.00 | 0.00 | 0.00 | 29 | 1016.3 |
| 20260503202432 | 18 | 167 | 8.0 | 16.1 | 0.00 | 0.00 | 0.00 | 27 | 1016.2 |
| 20260503201930 | 17 | 273 | 3.2 | 16.1 | 0.00 | 0.00 | 0.00 | 27 | 1016.2 |
| 20260503201427 | 17 | 308 | 3.2 | 11.3 | 0.00 | 0.00 | 0.00 | 28 | 1016.2 |
| 20260503200924 | 17 | 10 | 6.4 | 11.3 | 0.00 | 0.00 | 0.00 | 28 | 1016.2 |
| 20260503200420 | 18 | 269 | 11.3 | 16.1 | 0.00 | 0.00 | 0.00 | 27 | 1016.6 |
| 20260503195917 | 17 | 21 | 0.0 | 1.6 | 0.00 | 0.00 | 0.00 | 31 | 1016.4 |
| 20260503195414 | 17 | 269 | 4.8 | 6.4 | 0.00 | 0.00 | 0.00 | 29 | 1016.5 |
| 20260503194910 | 17 | 300 | 0.0 | 6.4 | 0.00 | 0.00 | 0.00 | 27 | 1016.9 |
| 20260503194407 | 17 | 37 | 3.2 | 11.3 | 0.00 | 0.00 | 0.00 | 27 | 1016.7 |
| 20260503193903 | 17 | 5 | 0.0 | 4.8 | 0.00 | 0.00 | 0.00 | 29 | 1016.8 |
| 20260503193359 | 17 | 240 | 0.0 | 3.2 | 0.00 | 0.00 | 0.00 | 27 | 1016.7 |
| 20260503192854 | 17 | 26 | 0.0 | 9.7 | 0.00 | 0.00 | 0.00 | 29 | 1016.8 |
| 20260503192350 | 17 | 323 | 8.0 | 11.3 | 0.00 | 0.00 | 0.00 | 27 | 1016.7 |
| 20260503191847 | 17 | 46 | 1.6 | 6.4 | 0.00 | 0.00 | 0.00 | 27 | 1017.0 |
| 20260503191344 | 17 | 268 | 6.4 | 11.3 | 0.00 | 0.00 | 0.00 | 27 | 1017.2 |
| 20260503190841 | 17 | 252 | 0.0 | 9.7 | 0.00 | 0.00 | 0.00 | 32 | 1017.1 |
| 20260503190338 | 17 | 352 | 0.0 | 0.0 | 0.00 | 0.00 | 0.00 | 30 | 1017.1 |
| 20260503185835 | 17 | 231 | 9.7 | 14.5 | 0.00 | 0.00 | 0.00 | 30 | 1017.2 |
| 20260503185332 | 17 | 16 | 1.6 | 3.2 | 0.00 | 0.00 | 0.00 | 29 | 1017.3 |
| 20260503184831 | 16 | 25 | 6.4 | 11.3 | 0.00 | 0.00 | 0.00 | 29 | 1017.1 |
| 20260503184327 | 16 | 293 | 1.6 | 9.7 | 0.00 | 0.00 | 0.00 | 31 | 1017.5 |
| 20260503183823 | 16 | 117 | 1.6 | 11.3 | 0.00 | 0.00 | 0.00 | 29 | 1017.5 |
| 20260503183321 | 16 | 80 | 3.2 | 9.7 | 0.00 | 0.00 | 0.00 | 29 | 1017.4 |
| 20260503182818 | 16 | 66 | 8.0 | 14.5 | 0.00 | 0.00 | 0.00 | 28 | 1017.6 |
| 20260503182317 | 16 | 212 | 1.6 | 4.8 | 0.00 | 0.00 | 0.00 | 28 | 1017.4 |
| 20260503181814 | 17 | 249 | 6.4 | 9.7 | 0.00 | 0.00 | 0.00 | 28 | 1017.6 |
| 20260503181311 | 16 | 354 | 1.6 | 11.3 | 0.00 | 0.00 | 0.00 | 27 | 1017.6 |
| 20260503180807 | 16 | 315 | 3.2 | 6.4 | 0.00 | 0.00 | 0.00 | 31 | 1017.6 |
| 20260503180305 | 16 | 8 | 4.8 | 14.5 | 0.00 | 0.00 | 0.00 | 30 | 1017.7 |
| 20260503175801 | 16 | 258 | 3.2 | 12.9 | 0.00 | 0.00 | 0.00 | 30 | 1017.9 |
| 20260503175300 | 16 | 252 | 0.0 | 17.7 | 0.00 | 0.00 | 0.00 | 32 | 1017.9 |
| 20260503174755 | 15 | 281 | 1.6 | 3.2 | 0.00 | 0.00 | 0.00 | 33 | 1017.9 |
| 20260503174253 | 15 | 51 | 3.2 | 11.3 | 0.00 | 0.00 | 0.00 | 33 | 1017.9 |
| 20260503173748 | 16 | 31 | 3.2 | 9.7 | 0.00 | 0.00 | 0.00 | 31 | 1018.1 |
| 20260503173244 | 15 | 283 | 6.4 | 12.9 | 0.00 | 0.00 | 0.00 | 33 | 1018.2 |
| 20260503172741 | 15 | 289 | 3.2 | 11.3 | 0.00 | 0.00 | 0.00 | 32 | 1018.0 |
| 20260503172238 | 15 | 271 | 6.4 | 6.4 | 0.00 | 0.00 | 0.00 | 32 | 1018.2 |
| 20260503171735 | 15 | 323 | 1.6 | 3.2 | 0.00 | 0.00 | 0.00 | 33 | 1018.2 |
| 20260503171232 | 15 | 295 | 4.8 | 11.3 | 0.00 | 0.00 | 0.00 | 33 | 1018.2 |
| 20260503170729 | 15 | 315 | 4.8 | 9.7 | 0.00 | 0.00 | 0.00 | 35 | 1018.2 |
| 20260503170226 | 14 | 275 | 4.8 | 12.9 | 0.00 | 0.00 | 0.00 | 35 | 1018.5 |
| 20260503160148 | 13 | 66 | 0.0 | 9.7 | 0.00 | 0.00 | 0.00 | 41 | 1019.0 |
| 20260503150618 | 12 | 249 | 3.2 | 6.4 | 0.00 | 0.00 | 0.00 | 41 | 1019.4 |
| 20260503150114 | 12 | 233 | 3.2 | 12.9 | 0.00 | 0.00 | 0.00 | 41 | 1019.5 |
| 20260503131007 | 10 | 333 | 3.2 | 6.4 | 0.00 | 0.00 | 0.00 | 51 | 1019.9 |
| 20260503130504 | 10 | 339 | 4.8 | 6.4 | 0.00 | 0.00 | 0.00 | 50 | 1019.8 |
| 20260503110355 | 2 | 267 | 0.0 | 0.0 | 0.00 | 0.00 | 0.00 | 84 | 1018.9 |
| 20260503090246 | 4 | 267 | 0.0 | 3.2 | 0.00 | 0.00 | 0.00 | 67 | 1017.6 |
| 20260503081208 | 4 | 248 | 0.0 | 0.0 | 0.00 | 0.00 | 0.00 | 75 | 1017.5 |
| 20260503080704 | 5 | 248 | 0.0 | 0.0 | 0.00 | 0.00 | 0.00 | 77 | 1017.4 |
| 20260503080201 | 5 | 248 | 0.0 | 0.0 | 0.00 | 0.00 | 0.00 | 75 | 1017.5 |
| 20260503072638 | 3 | 326 | 0.0 | 0.0 | 0.00 | 0.00 | 0.00 | 78 | 1017.1 |
| 20260503072135 | 3 | 326 | 0.0 | 0.0 | 0.00 | 0.00 | 0.00 | 81 | 1017.2 |